Location: Ab? ar R?sh Ba?r?
(24.1861°N, 32.8847°E)
Time: 11:23:37
(UTC+00:00)

NOSS 3-1 (A) - Pass Details

Date: 24 October 2021
Orbit: 721 x 1491 km, 63.4° (Epoch: 22 November)

Event Time Altitude Azimuth Distance (km) Brightness Sun altitude
Rises 15:54:55 0° 221° (SW) 3,116 7.0 -9.9°
Reaches altitude 10° 15:57:16 10° 227° (SW) 2,210 6.3 -10.4°
Maximum altitude 16:02:02 46° 300° (WNW) 1,017 4.1 -11.5°
Drops below altitude 10° 16:07:17 10° 14° (NNE) 2,441 5.4 -12.7°
Sets 16:10:01 0° 20° (NNE) 3,480 6.1 -13.3°
